Weather History for Covington, KY

Change the Weather History Date:

Wednesday, December 11, 2013

  Actual Average Record
Temperature  
Mean Temperature 22 °F 35 °F  
Max Temperature 34 °F 43 °F 70 °F (1931)
Min Temperature 10 °F 28 °F -13 °F (1917)
Degree Days  
Heating Degree Days 43 30  
Month to date heating degree days 321 311  
Since 1 July heating degree days 1357 1271  
Cooling Degree Days 0 0  
Month to date cooling degree days 0 0  
Year to date cooling degree days 1150 1121  
Moisture  
Dew Point 16 °F    
Average Humidity 79    
Maximum Humidity 96    
Minimum Humidity 61    
Precipitation  
Precipitation T in 0.12 in 1.73 in (1964)
Month to date precipitation 1.80 1.24  
Year to date precipitation 46.37 40.39  
Snow  
Snow T in 0.10 in 4.00 in (1944)
Month to date snowfall 9.6 1.2  
Since 1 July snowfall 12.0 2.0  
Snow Depth 5.00 in    
Sea Level Pressure  
Sea Level Pressure 30.40 in    
Wind  
Wind Speed 10 mph (WSW)    
Max Wind Speed 22 mph    
Max Gust Speed 26 mph    
Visibility 8 miles    
Events Fog , Snow    
T = Trace of Precipitation, MM = Missing Value Source: NWS Daily Summary

Daily Weather History Graph

Daily Weather History Graph

Search for Another Location

Airport:

Trip Planner

Search our weather history database for the weather conditions in past years. The results will help you decide how hot, cold, wet, or windy it might be!

Date:

Astronomy

Dec. 11, 2013 Rise Set
Actual Time 7:47 AM EST 5:16 PM EST
Civil Twilight 7:17 AM EST 5:46 PM EST
Nautical Twilight 6:44 AM EST 6:19 PM EST
Astronomical Twilight 6:11 AM EST 6:52 PM EST
Moon 1:47 PM EST (12/11) 2:10 AM EST (12/11)
Length of Visible Light 10h 28m
Length of Day
9h 28m
Waxing Gibbous, 71% of the Moon is Illuminated
Dec 11
Waxing Gibbous
Dec 17
Full
Dec 25
Last Quarter
Jan 1
New
Jan 7
First Quarter

Hourly Weather History & Observations

Time (EST) Temp. Windchill Dew Point Humidity Pressure Visibility Wind Dir Wind Speed Gust Speed Precip Events Conditions
12:52 AM 19.9 °F 14.9 °F 12.0 °F 71% 30.38 in 10.0 mi WSW 3.5 mph - N/A   Clear
1:52 AM 16.0 °F - 10.9 °F 81% 30.37 in 10.0 mi Calm Calm - N/A   Clear
2:52 AM 14.0 °F 8.2 °F 12.0 °F 92% 30.39 in 8.0 mi South 3.5 mph - N/A   Clear
3:52 AM 10.9 °F 4.7 °F 9.0 °F 92% 30.40 in 7.0 mi South 3.5 mph - N/A   Clear
4:52 AM 12.9 °F 5.2 °F 10.9 °F 92% 30.40 in 6.0 mi SSW 4.6 mph - N/A   Clear
5:52 AM 14.0 °F 5.1 °F 12.0 °F 92% 30.38 in 5.0 mi South 5.8 mph - N/A   Clear
6:52 AM 14.0 °F 3.9 °F 10.9 °F 88% 30.38 in 6.0 mi South 6.9 mph - N/A   Clear
7:52 AM 16.0 °F 6.3 °F 12.9 °F 88% 30.39 in 4.0 mi SSW 6.9 mph - N/A Fog Partly Cloudy
8:52 AM 19.0 °F 10.0 °F 16.0 °F 88% 30.40 in 6.0 mi SSW 6.9 mph - N/A   Clear
10:52 AM 26.1 °F 16.2 °F 19.9 °F 78% 30.39 in 9.0 mi SSW 10.4 mph 20.7 mph N/A   Partly Cloudy
11:52 AM 28.9 °F 18.6 °F 21.0 °F 72% 30.37 in 9.0 mi SW 12.7 mph - N/A   Partly Cloudy
12:52 PM 32.0 °F 24.8 °F 23.0 °F 69% 30.32 in 10.0 mi SW 8.1 mph 17.3 mph N/A   Partly Cloudy
1:52 PM 33.1 °F 24.4 °F 21.9 °F 64% 30.30 in 10.0 mi SW 11.5 mph 20.7 mph N/A   Partly Cloudy
2:52 PM 34.0 °F 24.6 °F 21.0 °F 59% 30.31 in 10.0 mi SW 13.8 mph 20.7 mph N/A   Scattered Clouds
3:52 PM 34.0 °F 26.6 °F 21.9 °F 61% 30.33 in 10.0 mi WSW 9.2 mph - N/A   Mostly Cloudy
4:52 PM 32.0 °F 22.1 °F 21.9 °F 66% 30.35 in 10.0 mi West 13.8 mph - N/A   Overcast
5:52 PM 30.0 °F 17.5 °F 19.9 °F 66% 30.39 in 9.0 mi NW 19.6 mph 26.5 mph N/A   Overcast
6:52 PM 28.0 °F 15.3 °F 19.0 °F 69% 30.42 in 9.0 mi NW 18.4 mph - N/A   Overcast
7:52 PM 25.0 °F 11.7 °F 17.1 °F 72% 30.46 in 10.0 mi NNW 17.3 mph - 0.00 in Snow Light Snow
8:16 PM 24.8 °F 12.4 °F 15.8 °F 69% 30.44 in 9.0 mi NW 15.0 mph - 0.00 in Snow Light Snow
8:52 PM 23.0 °F 10.6 °F 15.1 °F 72% 30.49 in 9.0 mi NW 13.8 mph - 0.00 in Snow Light Snow
9:09 PM 23.0 °F 11.1 °F 14.0 °F 68% 30.45 in 9.0 mi NW 12.7 mph - 0.00 in Snow Light Snow
9:52 PM 21.9 °F 11.0 °F 12.0 °F 66% 30.51 in 9.0 mi NW 10.4 mph - 0.00 in Snow Light Snow
10:08 PM 21.2 °F 10.1 °F 12.2 °F 68% 30.47 in 8.0 mi NW 10.4 mph - 0.00 in Snow Light Snow
10:52 PM 21.9 °F 10.4 °F 12.9 °F 68% 30.52 in 9.0 mi WNW 11.5 mph - 0.00 in Snow Light Snow
11:52 PM 19.0 °F 7.5 °F 10.0 °F 68% 30.52 in 10.0 mi NW 10.4 mph - 0.00 in   Scattered Clouds